{"data":{"norad_id":48777,"epoch":"2026-09-20T05:15:20.029248Z","epoch_age_seconds":42633,"freshness":"FRESH","line1":"1 48777U 21045L   26263.21898182  .00000065  00000+0  13912-3 0  9992","line2":"2 48777  87.8982 240.2612 0002441  64.9780 295.1604 13.15547417256906","mean_motion":13.15547417,"eccentricity":0.0002441,"inclination_deg":87.8982,"raan_deg":240.2612,"arg_perigee_deg":64.978,"mean_anomaly_deg":295.1604,"bstar":0.00013912,"rev_number":25690,"period_min":109.46013662387,"perigee_km":1199.9248629845,"apogee_km":1203.6253760812,"semimajor_km":7579.9121195328,"source":"CELESTRAK","updated_at":"2026-09-20T09:00:44.617003Z"}}